weather.gov     
National Weather Service

Terminal Aerodrome Forecast
NWS Homepage
This page is being discontinued on March 12, 2014.
The same data is available at this site. Please update your bookmarks.
Thank you, and we apologize for the inconvenience.
Please send an email to SR-SRH.Webmaster@noaa.gov with any concerns.


Current Version
Previous Version:    01  02  03  04  05  06  07  08  09  10  11  12  13  14  15  16  17  18  19  20  21  22  23  24  25  26  27  28  29  30  
   31  32  33  34  35  36  37  
[Printable]
274
FTUS44 KMEG 191129
TAFMKL
TAF
KMKL 191129Z 1912/2012 04005KT P6SM SCT025 OVC035
     FM192200 03003KT P6SM VCSH SCT015 OVC025
      TEMPO 2000/2004 5SM -RA BR SCT009 OVC012
     FM200400 VRB03KT 3SM BR VCSH BKN009 OVC012=




274
FTUS44 KMEG 191129
TAFMKL
TAF
KMKL 191129Z 1912/2012 04005KT P6SM SCT025 OVC035
     FM192200 03003KT P6SM VCSH SCT015 OVC025
      TEMPO 2000/2004 5SM -RA BR SCT009 OVC012
     FM200400 VRB03KT 3SM BR VCSH BKN009 OVC012=


U.S. Dept. of Commerce
NOAA National Weather Service
1325 East West Highway
Silver Spring, MD 20910
E-mail: w-nws.webmaster@noaa.gov
Page last modified: May 16, 2007
NATIONAL WEATHER SERVICE: for Safety, for Work, for Fun - FOR LIFE